Regional Weather Roundup
Issued by NWS Newport/Morehead, NC

Current Version | Previous Version | Graphics & Text | Print | Product List | Glossary Off
Versions: 1 2 3 4 5 6 7 8 9 10 11 12 13 14 15 16 17 18 19 20 21 22 23 24 25 26 27 28 29 30 31 32 33 34 35 36 37 38 39 40 41 42 43 44 45 46 47 48 49 50

000
ASUS42 KMHX 190725
RWRMHX
WEATHER ROUNDUP FOR EASTERN NORTH CAROLINA
NATIONAL WEATHER SERVICE NEWPORT/MOREHEAD CITY NC
300 AM EDT THU OCT 19 2017

NOTE: "FAIR" INDICATES FEW OR NO CLOUDS BELOW 12,000 FEET
WITH NO SIGNIFICANT WEATHER AND/OR OBSTRUCTIONS TO VISIBILITY

NCZ015>017-031-032-045>047-102-103-190800-
NORTH COAST

CITY           SKY/WX    TMP DP  RH WIND       PRES   REMARKS
EDENTON        CLEAR     56  54  92 CALM      30.30S
ELIZABETH CITY PTCLDY    59  56  89 N7        30.29F
KITTY HAWK     SUNNY     64  57  77 CALM      30.27F
MANTEO         CLEAR    N/A N/A N/A NE6       30.28F

$$

NCZ045>047-081-094-103-104-190800-
CENTRAL COAST

CITY           SKY/WX    TMP DP  RH WIND       PRES   REMARKS
FRISCO         PTCLDY    67  63  87 NE6       30.25F

$$

NCZ095-097-098-100-101-190800-
SOUTHERN COAST

CITY           SKY/WX    TMP DP  RH WIND       PRES   REMARKS
BEAUFORT       CLEAR     62  60  93 N10       30.24F
CEDAR ISLAND   NOT AVBL
JACKSONVILLE   PTCLDY    58  57  97 N6        30.26F
PINEY ISLAND     N/A    N/A N/A N/A N10       30.25F
WILMINGTON     CLEAR     58  55  90 N8        30.25F


$$

NCZ011>013-027>030-043-044-078>080-089-090>093-098-190800-
COASTAL PLAIN

CITY           SKY/WX    TMP DP  RH WIND       PRES   REMARKS
AHOSKIE        CLOUDY    45  45 100 CALM      30.31S
CLINTON        CLEAR     50  50 100 CALM      30.29S
ELIZABETHTOWN  NOT AVBL
GOLDSBORO      CLEAR     51  49  93 CALM      30.27F
GREENVILLE     FOG       46  46 100 CALM      30.30S VSB 3/4
HAVELOCK       MOCLDY    61  59  93 N10       30.27F
KENANSVILLE    CLEAR     48  46  93 CALM      30.28F
KINSTON        CLEAR     48  47  98 CALM      30.29F
NEW BERN       PTCLDY    58  57  97 NE6       30.28F
RICHLANDS      PTCLDY    55  54  96 N3        30.27F
ROCKY MOUNT    CLOUDY    47  47 100 CALM      30.30F FOG
WASHINGTON     MOCLDY    56  54  92 NE3       30.29S
WHITEVILLE     CLEAR     53  51  92 CALM      30.26S

$$

AMZ130-135-150-152-154-156-158-170-250-252-270-ANZ085-086-088-633-658-670-190800-
MARINE OBSERVATIONS

STATION/POSITION TIME  TEMP    WIND        PRES    WAVE   SWELL
                       AIR SEA DIR/SP/G            HT/PER HT/PER
                 (UTC) (F)     (DEG/KT/KT) (MB)    (FT/S) (FT/S)
CHESAPEAKE LIGHT NOT AVBL
64 E VA BEACH    0650   67 67   60/  8/ 10 1026.1    3/ 9   3/ 9
DUCK             0700   67 68   40/  8/ 10 1025.0
2 E DUCK         0700      69                N/A     4/ 9   2/11
OREGON INLET     0700   67 65   40/  9/ 14 1024.7
13E OREGON INLT  0648      71                N/A     5/10   5/10
HATTERAS CG      0700   67 68   40/  9/ 13 1024.0
DIAMOND BUOY     0650   74 81   90/  8/ 12 1023.8    5/10   5/10
CAPE LOOKOUT     0700   64      10/ 11/ 15 1023.3
BEAUFORT LAB     0700   63 69   10/  8/ 10 1024.3
30 SE NEW RVR IN 0608   70      40/ 17/ 21 1023.2
30 SE NEW RVR IN NOT AVBL
27 SE WRIGHTSVLE 0708   71 77   70/ 17/ 25 1022.7
5 SE WRIGHTSVLE  0608   67 74   40/ 14/ 21 1024.0
225 S CAPE HAT   0650   77 80   70/ 17/ 19 1019.4    9/ 7   5/13
41 SE CHARLESTON 0710   73 79   30/ 19/ 25 1021.4

$$




USA.gov is the U.S. government's official web portal to all federal, state and local government web resources and services.